,,,PA_Meas_PMT16A,,PR_Meas_QMR101_102,,RH_Meas_QMH101,,SR_Meas_QMS101,,TA_Meas_QMH101,,GenWind,,GenWind,
date,time,status,PA,status,PR,status,RH,status,SR,status,TA,status,DirAvg,status,SpdAvg,
2012-01-27, 00:00:04,VALID,1004.57,VALID,0,VALID,79.5235,VALID,0,VALID,27.0121,VALID,358,VALID,2.02656,
2012-01-27, 00:01:04,VALID,1004.54,VALID,0,VALID,79.4777,VALID,0,VALID,27.0511,VALID,26,VALID,2.01133,
2012-01-27, 00:02:04,VALID,1004.54,VALID,0,VALID,79.1802,VALID,0,VALID,27.09,VALID,4,VALID,2.18203,
2012-01-27, 00:03:04,VALID,1004.51,VALID,0,VALID,79.4243,VALID,0,VALID,27.129,VALID,21,VALID,0.963281,
2012-01-27, 00:04:04,VALID,1004.5,VALID,0,VALID,79.3404,VALID,0,VALID,27.1095,VALID,22,VALID,2.22461,
2012-01-27, 00:05:04,VALID,1004.45,VALID,0,VALID,79.1039,VALID,0,VALID,27.1485,VALID,348,VALID,2.32734,
2012-01-27, 00:06:04,VALID,1004.44,VALID,0,VALID,79.081,VALID,0.0815089,VALID,27.1895,VALID,8,VALID,0.988672,
2012-01-27, 00:07:04,VALID,1004.44,VALID,0,VALID,79.287,VALID,0,VALID,27.1895,VALID,26,VALID,1.72891,
2012-01-27, 00:08:04,VALID,1004.39,VALID,0,VALID,79.1115,VALID,0,VALID,27.168,VALID,349,VALID,1.36094,
2012-01-27, 00:09:04,VALID,1004.4,VALID,0,VALID,79.1344,VALID,0,VALID,27.1895,VALID,3,VALID,2.35352,
2012-01-27, 00:10:04,VALID,1004.33,VALID,0,VALID,79.3632,VALID,0,VALID,27.17,VALID,24,VALID,1.49141,
2012-01-27, 00:11:04,VALID,1004.36,VALID,0,VALID,79.4319,VALID,0,VALID,27.209,VALID,11,VALID,1.90508,
2012-01-27, 00:12:04,VALID,1004.33,VALID,0,VALID,79.47,VALID,0,VALID,27.1916,VALID,2,VALID,1.48945,
2012-01-27, 00:13:04,VALID,1004.32,VALID,0,VALID,79.47,VALID,0,VALID,27.1506,VALID,342,VALID,1.82383,
2012-01-27, 00:14:04,VALID,1004.32,VALID,0,VALID,79.7218,VALID,0,VALID,27.1721,VALID,8,VALID,1.65117,
2012-01-27, 00:15:04,VALID,1004.31,VALID,0,VALID,79.8591,VALID,0,VALID,27.1526,VALID,3,VALID,1.68711,
2012-01-27, 00:16:04,VALID,1004.29,VALID,0,VALID,80.1872,VALID,0,VALID,27.1331,VALID,7,VALID,1.46406,
2012-01-27, 00:17:04,VALID,1004.29,VALID,0,VALID,80.2329,VALID,0,VALID,27.1136,VALID,18,VALID,1.45,
2012-01-27, 00:18:04,VALID,1004.28,VALID,0,VALID,80.4465,VALID,0,VALID,27.1136,VALID,12,VALID,1.17656,
2012-01-27, 00:19:04,VALID,1004.26,VALID,0,VALID,80.5381,VALID,0,VALID,27.0942,VALID,12,VALID,2.13359,
2012-01-27, 00:20:04,VALID,1004.28,VALID,0,VALID,80.5839,VALID,0,VALID,27.0747,VALID,26,VALID,1.04492,
2012-01-27, 00:21:04,VALID,1004.28,VALID,0,VALID,80.7212,VALID,0,VALID,27.0747,VALID,17,VALID,1.04297,
2012-01-27, 00:22:04,VALID,1004.24,VALID,0,VALID,80.7593,VALID,0,VALID,27.0336,VALID,20,VALID,1.76289,
2012-01-27, 00:23:04,VALID,1004.23,VALID,0,VALID,80.7517,VALID,0,VALID,27.0726,VALID,355,VALID,1.41094,
2012-01-27, 00:24:04,VALID,1004.23,VALID,0,VALID,80.6678,VALID,0,VALID,27.1311,VALID,31,VALID,1.18008,
2012-01-27, 00:25:04,VALID,1004.19,VALID,0,VALID,80.4465,VALID,0,VALID,27.1311,VALID,23,VALID,1.01406,
2012-01-27, 00:26:04,VALID,1004.2,VALID,0,VALID,80.561,VALID,0,VALID,27.1506,VALID,21,VALID,0.911719,
2012-01-27, 00:27:04,VALID,1004.2,VALID,0,VALID,80.5991,VALID,0,VALID,27.1311,VALID,357,VALID,1.72148,
2012-01-27, 00:28:04,VALID,1004.19,VALID,0,VALID,80.8966,VALID,0,VALID,27.09,VALID,16,VALID,1.08086,
2012-01-27, 00:29:04,VALID,1004.19,VALID,0,VALID,81.0263,VALID,0,VALID,27.0511,VALID,30,VALID,0.996094,
2012-01-27, 00:30:04,VALID,1004.15,VALID,0,VALID,81.2247,VALID,0,VALID,26.9926,VALID,359,VALID,1.22852,
2012-01-27, 00:31:04,VALID,1004.16,VALID,0,VALID,81.4002,VALID,0,VALID,27.0142,VALID,15,VALID,1.48438,
2012-01-27, 00:32:04,VALID,1004.13,VALID,0,VALID,81.3849,VALID,0,VALID,26.9947,VALID,356,VALID,0.674219,
2012-01-27, 00:33:04,VALID,1004.14,VALID,0,VALID,81.629,VALID,0,VALID,26.9752,VALID,59,VALID,0.652734,
2012-01-27, 00:34:04,VALID,1004.13,VALID,0,VALID,81.8274,VALID,0,VALID,26.9557,VALID,24,VALID,0.759375,
2012-01-27, 00:35:04,VALID,1004.09,VALID,0,VALID,81.8884,VALID,0,VALID,26.9167,VALID,30,VALID,0.795313,
2012-01-27, 00:36:04,VALID,1004.09,VALID,0,VALID,82.102,VALID,0,VALID,26.8757,VALID,60,VALID,0.971875,
2012-01-27, 00:37:04,VALID,1004.05,VALID,0,VALID,82.0868,VALID,0,VALID,26.8757,VALID,344,VALID,0.735547,
2012-01-27, 00:38:04,VALID,1004.04,VALID,0,VALID,82.1325,VALID,0,VALID,26.8952,VALID,14,VALID,0.760547,
2012-01-27, 00:39:04,VALID,1004.02,VALID,0,VALID,82.0715,VALID,0,VALID,26.8778,VALID,21,VALID,1.42266,
2012-01-27, 00:40:04,VALID,1004,VALID,0,VALID,82.2012,VALID,0,VALID,26.8563,VALID,15,VALID,1.50156,
2012-01-27, 00:41:04,VALID,1003.96,VALID,0,VALID,82.1478,VALID,0,VALID,26.8563,VALID,22,VALID,1.03516,
2012-01-27, 00:42:04,VALID,1003.94,VALID,0,VALID,82.2317,VALID,0,VALID,26.8583,VALID,44,VALID,0.910937,
2012-01-27, 00:43:04,VALID,1003.97,VALID,0,VALID,82.2393,VALID,0,VALID,26.8173,VALID,16,VALID,1.64844,
2012-01-27, 00:44:04,VALID,1003.94,VALID,0,VALID,82.2698,VALID,0,VALID,26.8388,VALID,350,VALID,1.52109,
2012-01-27, 00:45:04,VALID,1003.96,VALID,0,VALID,82.3004,VALID,0,VALID,26.8583,VALID,27,VALID,1.28594,
2012-01-27, 00:46:04,VALID,1003.93,VALID,0,VALID,82.2546,VALID,0,VALID,26.8173,VALID,10,VALID,1.74609,
2012-01-27, 00:47:04,VALID,1003.94,VALID,0,VALID,82.102,VALID,0,VALID,26.8583,VALID,4,VALID,1.40313,
2012-01-27, 00:48:04,VALID,1003.94,VALID,0,VALID,82.0715,VALID,0,VALID,26.8563,VALID,346,VALID,0.787109,
2012-01-27, 00:49:04,VALID,1003.95,VALID,0,VALID,82.0868,VALID,0.0815089,VALID,26.8973,VALID,49,VALID,0.911328,
2012-01-27, 00:50:04,VALID,1003.93,VALID,0,VALID,81.9876,VALID,0.0815089,VALID,26.8757,VALID,56,VALID,1.2082,
2012-01-27, 00:51:04,VALID,1003.92,VALID,0,VALID,81.8884,VALID,0,VALID,26.9167,VALID,16,VALID,1.96367,
2012-01-27, 00:52:04,VALID,1003.9,VALID,0,VALID,81.8197,VALID,0,VALID,26.9362,VALID,2,VALID,1.9125,
2012-01-27, 00:53:04,VALID,1003.92,VALID,0,VALID,81.4459,VALID,0,VALID,26.9947,VALID,22,VALID,1.56719,
2012-01-27, 00:54:04,VALID,1003.94,VALID,0,VALID,81.2628,VALID,0,VALID,27.0316,VALID,25,VALID,1.88437,
2012-01-27, 00:55:04,VALID,1003.93,VALID,0,VALID,81.0797,VALID,0,VALID,27.0921,VALID,20,VALID,2.80234,
2012-01-27, 00:56:04,VALID,1003.91,VALID,0,VALID,80.8204,VALID,0,VALID,27.1116,VALID,10,VALID,2.20234,
2012-01-27, 00:57:04,VALID,1003.92,VALID,0,VALID,80.7136,VALID,0,VALID,27.1485,VALID,11,VALID,1.90352,
2012-01-27, 00:58:04,VALID,1003.91,VALID,0,VALID,80.8051,VALID,0,VALID,27.1506,VALID,10,VALID,1.04531,
2012-01-27, 00:59:04,VALID,1003.9,VALID,0,VALID,80.7136,VALID,0,VALID,27.1506,VALID,17,VALID,2.42031,
2012-01-27, 01:00:04,VALID,1003.91,VALID,0,VALID,80.6373,VALID,0,VALID,27.1506,VALID,18,VALID,2.24648,
2012-01-27, 01:01:04,VALID,1003.91,VALID,0,VALID,80.5305,VALID,0,VALID,27.209,VALID,19,VALID,1.63945,
2012-01-27, 01:02:04,VALID,1003.9,VALID,0,VALID,80.6525,VALID,0,VALID,27.168,VALID,11,VALID,1.36289,
2012-01-27, 01:03:04,VALID,1003.9,VALID,0,VALID,80.4999,VALID,0.0815089,VALID,27.1506,VALID,48,VALID,1.27617,
2012-01-27, 01:04:04,VALID,1003.88,VALID,0,VALID,80.7059,VALID,0.0815089,VALID,27.1506,VALID,7,VALID,1.1125,
2012-01-27, 01:05:04,VALID,1003.84,VALID,0,VALID,80.8204,VALID,0,VALID,27.0921,VALID,15,VALID,1.68906,
2012-01-27, 01:06:04,VALID,1003.85,VALID,0,VALID,80.828,VALID,0,VALID,27.1116,VALID,16,VALID,1.21523,
2012-01-27, 01:07:04,VALID,1003.82,VALID,0,VALID,80.8738,VALID,0,VALID,27.0511,VALID,340,VALID,1.79062,
2012-01-27, 01:08:04,VALID,1003.83,VALID,0,VALID,81.1408,VALID,0,VALID,27.0726,VALID,359,VALID,1.39727,
2012-01-27, 01:09:04,VALID,1003.78,VALID,0,VALID,81.1865,VALID,0,VALID,27.0531,VALID,25,VALID,1.04688,
2012-01-27, 01:10:04,VALID,1003.79,VALID,0,VALID,81.3467,VALID,0,VALID,26.9926,VALID,37,VALID,0.626562,
2012-01-27, 01:11:04,VALID,1003.82,VALID,0,VALID,81.568,VALID,0,VALID,26.9537,VALID,29,VALID,0.65,
2012-01-27, 01:12:04,VALID,1003.81,VALID,0,VALID,81.6672,VALID,0,VALID,26.9557,VALID,348,VALID,1.14648,
2012-01-27, 01:13:04,VALID,1003.82,VALID,0,VALID,81.7435,VALID,0,VALID,26.9147,VALID,43,VALID,0.923437,
2012-01-27, 01:14:04,VALID,1003.82,VALID,0,VALID,81.8197,VALID,0,VALID,26.8973,VALID,352,VALID,1.31367,
2012-01-27, 01:15:04,VALID,1003.8,VALID,0,VALID,81.9723,VALID,0,VALID,26.8757,VALID,21,VALID,0.585547,
2012-01-27, 01:16:04,VALID,1003.81,VALID,0,VALID,81.9876,VALID,0,VALID,26.8563,VALID,39,VALID,0.556641,
2012-01-27, 01:17:04,VALID,1003.82,VALID,0,VALID,82.1325,VALID,0,VALID,26.8368,VALID,32,VALID,0.429297,
2012-01-27, 01:18:04,VALID,1003.77,VALID,0,VALID,82.2775,VALID,0,VALID,26.8388,VALID,8,VALID,0.310156,
2012-01-27, 01:19:04,VALID,1003.72,VALID,0,VALID,82.4377,VALID,0,VALID,26.7783,VALID,36,VALID,0.591016,
2012-01-27, 01:20:04,VALID,1003.75,VALID,0,VALID,82.5292,VALID,0,VALID,26.7804,VALID,29,VALID,0.271875,
2012-01-27, 01:21:04,VALID,1003.72,VALID,0,VALID,82.5521,VALID,0,VALID,26.7589,VALID,29,VALID,0.285156,
2012-01-27, 01:22:04,VALID,1003.74,VALID,0,VALID,82.6971,VALID,0,VALID,26.7414,VALID,65,VALID,0.991016,
2012-01-27, 01:23:04,VALID,1003.72,VALID,0,VALID,82.7428,VALID,0,VALID,26.7004,VALID,17,VALID,0.719531,
2012-01-27, 01:24:04,VALID,1003.7,VALID,0,VALID,82.6818,VALID,0,VALID,26.7219,VALID,355,VALID,0.349609,
2012-01-27, 01:25:04,VALID,1003.7,VALID,0,VALID,82.6894,VALID,0,VALID,26.7434,VALID,23,VALID,0.303516,
2012-01-27, 01:26:04,VALID,1003.72,VALID,0,VALID,82.7734,VALID,0,VALID,26.7239,VALID,23,VALID,0.171094,
2012-01-27, 01:27:04,VALID,1003.68,VALID,0,VALID,83.048,VALID,0,VALID,26.685,VALID,47,VALID,0.155859,
2012-01-27, 01:28:04,VALID,1003.71,VALID,0,VALID,83.2235,VALID,0,VALID,26.646,VALID,77,VALID,0.318359,
2012-01-27, 01:29:04,VALID,1003.7,VALID,0,VALID,83.2082,VALID,0,VALID,26.605,VALID,53,VALID,0.494141,
2012-01-27, 01:30:04,VALID,1003.69,VALID,0,VALID,83.5439,VALID,0,VALID,26.5855,VALID,114,VALID,0.533203,
2012-01-27, 01:31:04,VALID,1003.66,VALID,0,VALID,83.6278,VALID,0,VALID,26.5681,VALID,114,VALID,0.0742188,
2012-01-27, 01:32:04,VALID,1003.68,VALID,0,VALID,83.7804,VALID,0,VALID,26.5096,VALID,114,VALID,0.392578,
2012-01-27, 01:33:04,VALID,1003.65,VALID,0,VALID,84.0016,VALID,0,VALID,26.4707,VALID,114,VALID,0.429297,
2012-01-27, 01:34:04,VALID,1003.64,VALID,0,VALID,84.1008,VALID,0,VALID,26.4512,VALID,120,VALID,0.689062,
2012-01-27, 01:35:04,VALID,1003.63,VALID,0,VALID,84.1542,VALID,0,VALID,26.4317,VALID,121,VALID,0.338281,
2012-01-27, 01:36:04,VALID,1003.64,VALID,0,VALID,84.3296,VALID,0,VALID,26.4122,VALID,121,VALID,0.00585938,
2012-01-27, 01:37:04,VALID,1003.57,VALID,0,VALID,84.5051,VALID,0,VALID,26.3518,VALID,121,VALID,0.1375,
2012-01-27, 01:38:04,VALID,1003.56,VALID,0,VALID,84.6119,VALID,0,VALID,26.3538,VALID,121,VALID,0.213281,
2012-01-27, 01:39:04,VALID,1003.52,VALID,0,VALID,84.8637,VALID,0,VALID,26.3128,VALID,121,VALID,0.342187,
2012-01-27, 01:40:04,VALID,1003.51,VALID,0,VALID,84.8942,VALID,0,VALID,26.2933,VALID,121,VALID,0.381641,
2012-01-27, 01:41:04,VALID,1003.49,VALID,0,VALID,85.1459,VALID,0,VALID,26.2329,VALID,121,VALID,0.212891,
2012-01-27, 01:42:04,VALID,1003.48,VALID,0,VALID,85.1993,VALID,0,VALID,26.1745,VALID,121,VALID,0,
2012-01-27, 01:43:04,VALID,1003.45,VALID,0,VALID,85.3595,VALID,0,VALID,26.1355,VALID,118,VALID,0.402344,
2012-01-27, 01:44:04,VALID,1003.46,VALID,0,VALID,85.4892,VALID,0.0815089,VALID,26.116,VALID,118,VALID,0.221094,
2012-01-27, 01:45:04,VALID,1003.41,VALID,0,VALID,85.5579,VALID,0,VALID,26.0985,VALID,118,VALID,0.0128906,
2012-01-27, 01:46:04,VALID,1003.39,VALID,0,VALID,85.741,VALID,0,VALID,26.0596,VALID,118,VALID,0.123438,
2012-01-27, 01:47:04,VALID,1003.39,VALID,0,VALID,85.9393,VALID,0,VALID,25.9992,VALID,118,VALID,0.0277344,
2012-01-27, 01:48:04,VALID,1003.37,VALID,0,VALID,86.1758,VALID,0,VALID,25.9992,VALID,118,VALID,0.233984,
2012-01-27, 01:49:04,VALID,1003.39,VALID,0,VALID,86.2826,VALID,0,VALID,25.9992,VALID,93,VALID,1.07227,
2012-01-27, 01:50:04,VALID,1003.37,VALID,0,VALID,86.2903,VALID,0,VALID,25.9992,VALID,58,VALID,0.471094,
2012-01-27, 01:51:04,VALID,1003.33,VALID,0,VALID,86.3132,VALID,0,VALID,26.0187,VALID,63,VALID,0.408594,
2012-01-27, 01:52:04,VALID,1003.3,VALID,0,VALID,86.2598,VALID,0,VALID,25.9992,VALID,63,VALID,0.173438,
2012-01-27, 01:53:04,VALID,1003.29,VALID,0,VALID,86.2903,VALID,0,VALID,25.9797,VALID,63,VALID,0.247656,
2012-01-27, 01:54:04,VALID,1003.24,VALID,0,VALID,86.3513,VALID,0,VALID,25.9622,VALID,63,VALID,0.158984,
2012-01-27, 01:55:04,VALID,1003.2,VALID,0,VALID,86.3894,VALID,0,VALID,25.9642,VALID,63,VALID,0.434375,
2012-01-27, 01:56:04,VALID,1003.19,VALID,0,VALID,86.4657,VALID,0,VALID,25.9622,VALID,63,VALID,0,
2012-01-27, 01:57:04,VALID,1003.14,VALID,0,VALID,86.4962,VALID,0,VALID,25.9232,VALID,63,VALID,0.228906,
2012-01-27, 01:58:04,VALID,1003.17,VALID,0,VALID,86.4734,VALID,0,VALID,25.9447,VALID,63,VALID,0.344531,
2012-01-27, 01:59:04,VALID,1003.18,VALID,0,VALID,86.3894,VALID,0,VALID,25.9427,VALID,63,VALID,0.0578125,
2012-01-27, 02:00:04,VALID,1003.17,VALID,0,VALID,86.3894,VALID,0,VALID,25.9232,VALID,63,VALID,0.155859,
2012-01-27, 02:01:04,VALID,1003.17,VALID,0,VALID,86.5039,VALID,0,VALID,25.9232,VALID,63,VALID,0.259375,
2012-01-27, 02:02:04,VALID,1003.18,VALID,0,VALID,86.4657,VALID,0,VALID,25.9447,VALID,63,VALID,0.0382813,
2012-01-27, 02:03:04,VALID,1003.16,VALID,0,VALID,86.4276,VALID,0,VALID,25.9232,VALID,57,VALID,0.477734,
2012-01-27, 02:04:04,VALID,1003.13,VALID,0,VALID,86.3437,VALID,0,VALID,25.9427,VALID,4,VALID,1.0625,
2012-01-27, 02:05:04,VALID,1003.1,VALID,0,VALID,86.1606,VALID,0,VALID,25.9622,VALID,37,VALID,0.306641,
2012-01-27, 02:06:04,VALID,1003.1,VALID,0,VALID,86.1529,VALID,0,VALID,25.9817,VALID,37,VALID,0,
2012-01-27, 02:07:04,VALID,1003.08,VALID,0,VALID,86.0309,VALID,0,VALID,25.9817,VALID,37,VALID,0,
2012-01-27, 02:08:04,VALID,1003.05,VALID,0,VALID,85.947,VALID,0,VALID,25.9622,VALID,37,VALID,0,
2012-01-27, 02:09:04,VALID,1003.01,VALID,0,VALID,86.1148,VALID,0.0815089,VALID,25.9817,VALID,79,VALID,0.210547,
2012-01-27, 02:10:04,VALID,1003,VALID,0,VALID,86.0767,VALID,0.0815089,VALID,25.9602,VALID,79,VALID,0.194531,
2012-01-27, 02:11:04,VALID,1002.99,VALID,0,VALID,86.1987,VALID,0.0815089,VALID,25.9388,VALID,69,VALID,0.374219,
2012-01-27, 02:12:04,VALID,1002.96,VALID,0,VALID,86.1987,VALID,0.0815089,VALID,25.9817,VALID,69,VALID,0.105859,
2012-01-27, 02:13:04,VALID,1002.98,VALID,0,VALID,86.2292,VALID,0.0815089,VALID,25.9408,VALID,69,VALID,0.349609,
2012-01-27, 02:14:04,VALID,1002.99,VALID,0,VALID,86.4123,VALID,0.0815089,VALID,25.9213,VALID,69,VALID,0.0789063,
2012-01-27, 02:15:04,VALID,1002.94,VALID,0,VALID,86.4276,VALID,0,VALID,25.9018,VALID,69,VALID,0.0046875,
2012-01-27, 02:16:04,VALID,1002.92,VALID,0,VALID,86.4505,VALID,0.0815089,VALID,25.9213,VALID,69,VALID,0.105078,
2012-01-27, 02:17:04,VALID,1002.96,VALID,0,VALID,86.481,VALID,0.0815089,VALID,25.9018,VALID,69,VALID,0.139844,
2012-01-27, 02:18:04,VALID,1002.93,VALID,0,VALID,86.42,VALID,0.0815089,VALID,25.8823,VALID,69,VALID,0,
2012-01-27, 02:19:04,VALID,1002.9,VALID,0,VALID,86.4352,VALID,0.0815089,VALID,25.8609,VALID,69,VALID,0.0472656,
2012-01-27, 02:20:04,VALID,1002.91,VALID,0,VALID,86.6107,VALID,0.0815089,VALID,25.8823,VALID,69,VALID,0.0492188,
2012-01-27, 02:21:04,VALID,1002.89,VALID,0,VALID,86.5115,VALID,0.0815089,VALID,25.9018,VALID,69,VALID,0.00351562,
2012-01-27, 02:22:04,VALID,1002.89,VALID,0,VALID,86.5268,VALID,0.0815089,VALID,25.9018,VALID,69,VALID,0,
2012-01-27, 02:23:04,VALID,1002.88,VALID,0,VALID,86.5649,VALID,0.0815089,VALID,25.8804,VALID,69,VALID,0,
2012-01-27, 02:24:04,VALID,1002.88,VALID,0,VALID,86.5878,VALID,0,VALID,25.8843,VALID,69,VALID,0,
2012-01-27, 02:25:04,VALID,1002.9,VALID,0,VALID,86.6717,VALID,0,VALID,25.8648,VALID,69,VALID,0.0464844,
2012-01-27, 02:26:04,VALID,1002.88,VALID,0,VALID,86.8243,VALID,0,VALID,25.8239,VALID,69,VALID,0.00078125,
2012-01-27, 02:27:04,VALID,1002.87,VALID,0,VALID,86.748,VALID,0,VALID,25.8259,VALID,69,VALID,0.0359375,
2012-01-27, 02:28:04,VALID,1002.85,VALID,0,VALID,86.9311,VALID,0,VALID,25.785,VALID,69,VALID,0.203906,
2012-01-27, 02:29:04,VALID,1002.89,VALID,0,VALID,86.9235,VALID,0,VALID,25.748,VALID,69,VALID,0.00703125,
2012-01-27, 02:30:04,VALID,1002.89,VALID,0,VALID,87.076,VALID,0,VALID,25.7285,VALID,69,VALID,0.140625,
2012-01-27, 02:31:04,VALID,1002.86,VALID,0,VALID,87.2439,VALID,0.0815089,VALID,25.6876,VALID,69,VALID,0,
2012-01-27, 02:32:04,VALID,1002.87,VALID,0,VALID,87.2973,VALID,0,VALID,25.6486,VALID,69,VALID,0.00742187,
2012-01-27, 02:33:04,VALID,1002.87,VALID,0,VALID,87.4804,VALID,0,VALID,25.6292,VALID,69,VALID,0.0589844,
2012-01-27, 02:34:04,VALID,1002.87,VALID,0,VALID,87.694,VALID,0,VALID,25.5921,VALID,69,VALID,0.0335938,
2012-01-27, 02:35:04,VALID,1002.86,VALID,0,VALID,87.8618,VALID,0.0815089,VALID,25.5707,VALID,69,VALID,0.0382813,
2012-01-27, 02:36:04,VALID,1002.84,VALID,0,VALID,88.1136,VALID,0,VALID,25.5707,VALID,69,VALID,0.0996094,
2012-01-27, 02:37:04,VALID,1002.82,VALID,0,VALID,88.1822,VALID,0,VALID,25.5921,VALID,345,VALID,0.720703,
2012-01-27, 02:38:04,VALID,1002.8,VALID,0,VALID,88.0296,VALID,0,VALID,25.6311,VALID,349,VALID,0.275781,
2012-01-27, 02:39:04,VALID,1002.83,VALID,0,VALID,87.6863,VALID,0,VALID,25.6097,VALID,349,VALID,0,
2012-01-27, 02:40:04,VALID,1002.83,VALID,0,VALID,87.755,VALID,0,VALID,25.6116,VALID,349,VALID,0.220313,
2012-01-27, 02:41:04,VALID,1002.82,VALID,0,VALID,87.8923,VALID,0,VALID,25.5921,VALID,349,VALID,0.189063,
2012-01-27, 02:42:04,VALID,1002.83,VALID,0,VALID,87.961,VALID,0,VALID,25.5707,VALID,349,VALID,0.140234,
2012-01-27, 02:43:04,VALID,1002.86,VALID,0,VALID,87.8237,VALID,0,VALID,25.5513,VALID,349,VALID,0.300391,
2012-01-27, 02:44:04,VALID,1002.88,VALID,0,VALID,87.7855,VALID,0,VALID,25.4928,VALID,349,VALID,0.285937,
2012-01-27, 02:45:04,VALID,1002.88,VALID,0,VALID,88.1975,VALID,0,VALID,25.4539,VALID,348,VALID,0.0292969,
2012-01-27, 02:46:04,VALID,1002.93,VALID,0,VALID,88.6476,VALID,0,VALID,25.3955,VALID,348,VALID,0.246094,
2012-01-27, 02:47:04,VALID,1002.97,VALID,0,VALID,88.9222,VALID,0,VALID,25.4169,VALID,348,VALID,0.301562,
2012-01-27, 02:48:04,VALID,1002.99,VALID,0,VALID,89.0748,VALID,0,VALID,25.4344,VALID,348,VALID,0.361328,
2012-01-27, 02:49:04,VALID,1002.97,VALID,0,VALID,88.8231,VALID,0,VALID,25.4948,VALID,348,VALID,0.228906,
2012-01-27, 02:50:04,VALID,1002.97,VALID,0,VALID,88.6247,VALID,0,VALID,25.4948,VALID,348,VALID,0,
2012-01-27, 02:51:04,VALID,1002.96,VALID,0,VALID,88.4569,VALID,0,VALID,25.4753,VALID,348,VALID,0,
2012-01-27, 02:52:04,VALID,1002.98,VALID,0,VALID,88.5942,VALID,0,VALID,25.4344,VALID,348,VALID,0,
2012-01-27, 02:53:04,VALID,1002.95,VALID,0,VALID,88.64,VALID,0,VALID,25.4363,VALID,349,VALID,0.201562,
2012-01-27, 02:54:04,VALID,1002.9,VALID,0,VALID,88.5255,VALID,0,VALID,25.337,VALID,348,VALID,0.0425781,
2012-01-27, 02:55:04,VALID,1002.9,VALID,0,VALID,88.9756,VALID,0,VALID,25.3195,VALID,349,VALID,0,
2012-01-27, 02:56:04,VALID,1002.89,VALID,0,VALID,88.8383,VALID,0,VALID,25.2592,VALID,349,VALID,0.501953,
2012-01-27, 02:57:04,VALID,1002.9,VALID,0,VALID,89.1358,VALID,0,VALID,25.2007,VALID,349,VALID,0.00195313,
2012-01-27, 02:58:04,VALID,1002.9,VALID,0,VALID,89.4715,VALID,0,VALID,25.1618,VALID,349,VALID,0.0015625,
2012-01-27, 02:59:04,VALID,1002.88,VALID,0,VALID,89.6546,VALID,0,VALID,25.1229,VALID,349,VALID,0.147656,
2012-01-27, 03:00:04,VALID,1002.88,VALID,0,VALID,89.914,VALID,0,VALID,25.1053,VALID,349,VALID,0,
2012-01-27, 03:01:04,VALID,1002.9,VALID,0,VALID,89.9979,VALID,0,VALID,25.0858,VALID,349,VALID,0.255078,
2012-01-27, 03:02:04,VALID,1002.85,VALID,0,VALID,90.0513,VALID,0,VALID,25.045,VALID,349,VALID,0,
2012-01-27, 03:03:04,VALID,1002.87,VALID,0,VALID,90.1505,VALID,0,VALID,25.006,VALID,349,VALID,0.266016,
2012-01-27, 03:04:04,VALID,1002.83,VALID,0,VALID,90.3488,VALID,0,VALID,24.9885,VALID,349,VALID,0.143359,
2012-01-27, 03:05:04,VALID,1002.88,VALID,0,VALID,90.4862,VALID,0,VALID,24.9476,VALID,353,VALID,0.399219,
2012-01-27, 03:06:04,VALID,1002.87,VALID,0,VALID,90.6006,VALID,0,VALID,24.9282,VALID,360,VALID,0.136719,
2012-01-27, 03:07:04,VALID,1002.88,VALID,0,VALID,90.7226,VALID,0,VALID,24.9087,VALID,360,VALID,0,
2012-01-27, 03:08:04,VALID,1002.92,VALID,0,VALID,90.715,VALID,0,VALID,24.8697,VALID,360,VALID,0.316797,
2012-01-27, 03:09:04,VALID,1002.92,VALID,0,VALID,91.0659,VALID,0,VALID,24.8716,VALID,360,VALID,0.318359,
2012-01-27, 03:10:04,VALID,1002.92,VALID,0,VALID,90.9591,VALID,0,VALID,24.8503,VALID,360,VALID,0.236719,
2012-01-27, 03:11:04,VALID,1002.93,VALID,0,VALID,91.0888,VALID,0,VALID,24.8113,VALID,360,VALID,0,
2012-01-27, 03:12:04,VALID,1002.93,VALID,0,VALID,91.2872,VALID,0,VALID,24.8113,VALID,360,VALID,0.264844,
2012-01-27, 03:13:04,VALID,1002.91,VALID,0,VALID,91.4092,VALID,0,VALID,24.8113,VALID,360,VALID,0.142578,
2012-01-27, 03:14:04,VALID,1002.91,VALID,0,VALID,91.4321,VALID,0,VALID,24.8132,VALID,360,VALID,0.0175781,
2012-01-27, 03:15:04,VALID,1002.89,VALID,0,VALID,91.3024,VALID,0,VALID,24.7743,VALID,360,VALID,0.473828,
2012-01-27, 03:16:04,VALID,1002.86,VALID,0,VALID,91.4855,VALID,0,VALID,24.714,VALID,19,VALID,0.315234,
2012-01-27, 03:17:04,VALID,1002.87,VALID,0,VALID,91.5542,VALID,0,VALID,24.6945,VALID,19,VALID,0.588281,
2012-01-27, 03:18:04,VALID,1002.85,VALID,0,VALID,91.7983,VALID,0,VALID,24.675,VALID,19,VALID,0.432422,
2012-01-27, 03:19:04,VALID,1002.84,VALID,0,VALID,91.9051,VALID,0,VALID,24.638,VALID,19,VALID,0.309375,
2012-01-27, 03:20:04,VALID,1002.84,VALID,0,VALID,91.989,VALID,0,VALID,24.5777,VALID,19,VALID,0.490234,
2012-01-27, 03:21:04,VALID,1002.81,VALID,0,VALID,92.0272,VALID,0,VALID,24.5777,VALID,19,VALID,0.205859,
2012-01-27, 03:22:04,VALID,1002.82,VALID,0,VALID,92.195,VALID,0,VALID,24.5582,VALID,19,VALID,0.28125,
2012-01-27, 03:23:04,VALID,1002.83,VALID,0,VALID,92.2789,VALID,0,VALID,24.5796,VALID,19,VALID,0.130859,
2012-01-27, 03:24:04,VALID,1002.84,VALID,0,VALID,92.3323,VALID,0,VALID,24.5388,VALID,19,VALID,0.147656,
2012-01-27, 03:25:04,VALID,1002.84,VALID,0,VALID,92.5917,VALID,0,VALID,24.5582,VALID,19,VALID,0.0695312,
2012-01-27, 03:26:04,VALID,1002.86,VALID,0,VALID,92.5841,VALID,0,VALID,24.5777,VALID,19,VALID,0.0996094,
2012-01-27, 03:27:04,VALID,1002.84,VALID,0,VALID,92.6756,VALID,0,VALID,24.5777,VALID,19,VALID,0.471875,
2012-01-27, 03:28:04,VALID,1002.85,VALID,0,VALID,92.6756,VALID,0,VALID,24.5777,VALID,21,VALID,0.516406,
2012-01-27, 03:29:04,VALID,1002.82,VALID,0,VALID,92.7977,VALID,0,VALID,24.6166,VALID,23,VALID,0.346875,
2012-01-27, 03:30:04,VALID,1002.88,VALID,0,VALID,92.7367,VALID,0,VALID,24.6166,VALID,25,VALID,0.317187,
2012-01-27, 03:31:04,VALID,1002.84,VALID,0,VALID,92.668,VALID,0,VALID,24.6166,VALID,44,VALID,0.0882813,
2012-01-27, 03:32:04,VALID,1002.84,VALID,0,VALID,92.813,VALID,0,VALID,24.6769,VALID,44,VALID,0.332422,
2012-01-27, 03:33:04,VALID,1002.82,VALID,0,VALID,92.6909,VALID,0,VALID,24.6769,VALID,44,VALID,0.533594,
2012-01-27, 03:34:04,VALID,1002.81,VALID,0,VALID,93.08,VALID,0,VALID,24.7353,VALID,66,VALID,0.583984,
2012-01-27, 03:35:04,VALID,1002.82,VALID,0,VALID,92.7367,VALID,0,VALID,24.7743,VALID,80,VALID,0.189453,
2012-01-27, 03:36:04,VALID,1002.79,VALID,0,VALID,92.5231,VALID,0,VALID,24.7335,VALID,61,VALID,0.153125,
2012-01-27, 03:37:04,VALID,1002.78,VALID,0,VALID,92.4849,VALID,0,VALID,24.7724,VALID,61,VALID,0.297266,
2012-01-27, 03:38:04,VALID,1002.77,VALID,0,VALID,92.4086,VALID,0.0815089,VALID,24.7919,VALID,61,VALID,0.4375,
2012-01-27, 03:39:04,VALID,1002.74,VALID,0,VALID,92.1721,VALID,0.0815089,VALID,24.7724,VALID,60,VALID,0.396484,
2012-01-27, 03:40:04,VALID,1002.68,VALID,0,VALID,92.2103,VALID,0,VALID,24.7705,VALID,18,VALID,0.734375,
2012-01-27, 03:41:04,VALID,1002.69,VALID,0,VALID,91.989,VALID,0,VALID,24.7529,VALID,18,VALID,0.453125,
2012-01-27, 03:42:04,VALID,1002.67,VALID,0,VALID,92.0348,VALID,0,VALID,24.7724,VALID,18,VALID,0.567969,
2012-01-27, 03:43:04,VALID,1002.72,VALID,0,VALID,92.1416,VALID,0,VALID,24.7529,VALID,18,VALID,0.964844,
2012-01-27, 03:44:04,VALID,1002.72,VALID,0,VALID,92.0272,VALID,0,VALID,24.8132,VALID,24,VALID,0.35625,
2012-01-27, 03:45:04,VALID,1002.7,VALID,0,VALID,92.34,VALID,0,VALID,24.8697,VALID,24,VALID,0.813281,